Simultaneous Nadir Overpasses (SNOs) Predictions

Prediction of SNOs between GOES-16 and NPP Satellite Orbit:

Table of predicted SNOs for the next 14.0 days since TLE Epoch: 9/28/2024
Index Date Time (GOES-16) GOES-16 Lat,Lon NPP Lat,Lon Distance(km) Time Diff (sec)
1 09/28/2024 06:25:49 0.06, -75.19 -0.01, -74.93 30.06 80
2 09/30/2024 18:26:15 -0.05, -75.23 -0.16, -75.68 51.71 80
3 10/01/2024 18:10:08 -0.05, -75.24 0.88, -71.15 467.02 80
4 10/03/2024 06:29:12 0.05, -75.24 0.29, -76.40 131.70 80
5 10/04/2024 06:13:05 0.05, -75.26 -0.70, -71.86 387.32 80
6 10/05/2024 18:32:17 -0.05, -75.29 -0.48, -77.14 211.47 80
7 10/06/2024 18:16:11 -0.05, -75.31 0.58, -72.61 307.76 80
8 10/08/2024 06:35:14 0.05, -75.32 0.64, -77.86 290.41 80
9 10/09/2024 06:16:28 0.05, -75.33 -0.42, -73.33 228.79 80
10 10/10/2024 18:38:19 -0.04, -75.37 -0.79, -78.60 369.80 80
11 10/11/2024 18:22:13 -0.03, -75.38 0.28, -74.08 149.75 80
